Hourly Weather Roundup
Issued by NWS Central Illinois

Home | Current Version | Previous Version | Text Only | Print | Product List | Glossary On
Versions: 1 2 3 4 5 6 7 8 9 10 11 12 13 14 15 16 17 18 19 20 21 22 23 24 25 26 27 28 29 30 31 32 33 34 35 36 37 38 39 40 41 42 43 44 45 46 47 48 49 50
000
NZUS43 KILX 220710
HWRILX

AREA WEATHER ROUNDUP
NATIONAL WEATHER SERVICE, LINCOLN IL
100 AM CST SUN JAN 22 2017


CITY           SKY/WX    TMP DP  RH WIND       PRES   REMARKS
BLOOMINGTON    MOCLDY    42  41  96 N7        29.58F
CHAMPAIGN      CLOUDY    48  43  82 NE7       29.56F
DANVILLE       RAIN      48  47  97 NE3       29.55F
DECATUR        CLEAR     42  42 100 NE6       29.56F
EFFINGHAM      CLEAR     47  47 100 N3        29.54F
FLORA          CLOUDY    53  50  91 NE6       29.52F
GALESBURG      FOG       32  32 100 CALM      29.58S VSB<1/4
JACKSONVILLE   PTCLDY    44  41  91 NE6       29.55F
LACON          FOG       40  40 100 E3        29.59S VSB 1/4
LAWRENCEVILLE  CLOUDY    50  48  93 E5        29.54F
LITCHFIELD     PTCLDY    50  44  79 NE10      29.51F
$$


CITY           SKY/WX    TMP DP  RH WIND       PRES   REMARKS
LINCOLN        CLOUDY    45  43  95 N5        29.56F
MACOMB         FOG       35  35 100 CALM      29.60F VSB 1/4
MATTOON        CLOUDY    50  49  96 S3        29.55F
MT CARMEL AP   CLOUDY    51  47  86 E6        29.53F
OLNEY-NOBLE AP PTCLDY    50  50 100 NE5       29.53F
PARIS          CLOUDY    46  46 100 E3        29.57F FOG
PEORIA         FOG       39  39 100 NE7       29.59S VSB 1/4 WCI  34
PONTIAC        FOG       39  39 100 N7        29.60S VSB 1/4 WCI  34
RANTOUL        CLOUDY    48  44  88 NE3       29.56F
SPRINGFIELD    CLOUDY    45  41  86 N6        29.55F
TAYLORVILLE    CLEAR     46  43  88 NE7       29.54F
$$

...REGIONAL REPORTS...


CITY           SKY/WX    TMP DP  RH WIND       PRES   REMARKS
CHICAGO O`HARE CLOUDY    42  41  96 NW6       29.58F FOG
KANKAKEE       FOG       38  37  98 CALM      29.59F VSB 3/4
MOLINE         PTCLDY    39  35  86 CALM      29.58S
MOUNT STERLING CLOUDY    41  41  98 N9        29.55F FOG
MOUNT VERNON   PTCLDY    46  46 100 N5        29.50F
PITTSFIELD     CLEAR     46  44  91 N7        29.55F
QUINCY         MOCLDY    42  41  96 NE10      29.54F FOG
ROCKFORD       FOG       41  39  93 CALM      29.59F VSB 1
$$


CITY           SKY/WX    TMP DP  RH WIND       PRES   REMARKS
BURLINGTON     FOG       36  36 100 CALM      29.58S VSB 1/2
CEDAR RAPIDS   FOG       32  32 100 CALM      29.56S VSB 1/4
DES MOINES     FOG       30  29  96 CALM      29.56S VSB 1/4
KIRKSVILLE     CLOUDY    40  39  97 NE7       29.56F FOG
OTTUMWA        FOG       29  27  92 CALM      29.56R VSB 1/4
ST LOUIS       PTCLDY    53  41  63 NE8       29.50F
$$


CITY           SKY/WX    TMP DP  RH WIND       PRES   REMARKS
TERRE HAUTE    CLEAR     45  44  97 E3        29.56F
EVANSVILLE     PTCLDY    51  46  83 NE7       29.51F
INDIANAPOLIS   PTCLDY    50  46  86 E5        29.58F
LAFAYETTE      MOCLDY    49  49 100 S5        29.57F
MADISON        CLOUDY    40  39  97 CALM      29.57S FOG
MILWAUKEE      PTCLDY    42  39  89 SW5       29.57F
$$





USA.gov is the U.S. government's official web portal to all federal, state and local government web resources and services.